Date String (YYYY-MM-DD hh:mm:ss) UTC,Instrument flags,absolute air pressure of the measurement (hPa),sample flow rate (lpm),inlet stack bypass flow (lpm),air temperature of the measurement (°C),ambient temperature measured by the external sensor (°C),aerosol sample conditioner tube jacket temperature (°C),OPC LED temperature (°C),internal box temperature (°C),relative humidity of the measurement (%),span deviation,mass concentration of particles derived from Lorenz-Mie calculation of OPC scattering (μg/m³),mass concentration of particles derived from Lorenz-Mie calculation of OPC scattering (μg/m³),mass concentration of particles derived from Lorenz-Mie calculation of OPC scattering (μg/m³)
DateTimeUTC,F1_M11,P_M11,Q1_M11,Q2_M11,T1_M11,T2_M11,T3_M11,T4_M11,T5_M11,U1_M11,ZSPAN_M11,X2_M11,X0_M11,X1_M11
2023-06-09 17:00:00,SystemResetWarning,0830.3,5.00,000.00,029.3,026.0,000.0,037.9,030.6,25.8,0000.0,0003.83,0008.43,0003.24
2023-06-09 17:01:00,SystemResetWarning,0830.2,5.00,000.00,029.3,026.4,000.0,037.9,030.6,25.6,0000.0,0003.87,0009.02,0003.25
2023-06-09 17:02:00,SystemResetWarning,0830.2,5.00,000.00,029.3,026.7,000.0,037.9,030.7,26.2,0000.0,0003.89,0009.25,0003.25
2023-06-09 17:03:00,SystemResetWarning,0830.2,4.99,000.00,029.3,027.0,000.0,037.9,030.7,26.9,0000.0,0003.91,0009.40,0003.25
2023-06-09 17:04:00,SystemResetWarning,0830.2,5.00,000.00,029.3,027.3,000.0,037.9,030.8,26.1,0000.0,0003.95,0009.53,0003.25
2023-06-09 17:05:00,SystemResetWarning,0830.2,5.00,000.00,029.3,027.5,000.0,037.9,030.9,22.8,0000.0,0003.97,0009.47,0003.26
2023-06-09 17:06:00,SystemResetWarning,0830.2,4.99,000.00,029.3,027.6,000.0,037.9,030.9,21.5,0000.0,0003.98,0010.42,0003.25
2023-06-09 17:07:00,SystemResetWarning,0830.2,4.99,000.00,029.4,027.8,000.0,037.9,031.0,20.0,0000.0,0004.01,0011.13,0003.24
2023-06-09 17:08:00,SystemResetWarning,0830.2,5.00,000.00,029.4,027.9,000.0,037.9,031.0,21.3,0000.0,0004.04,0011.28,0003.23
2023-06-09 17:09:00,SystemResetWarning,0830.2,5.00,000.00,029.5,028.1,000.0,037.9,031.1,22.4,0000.0,0004.06,0011.17,0003.23
2023-06-09 17:10:00,SystemResetWarning,0830.2,5.01,000.00,029.5,028.2,000.0,037.9,031.1,19.1,0000.0,0004.01,0011.08,0003.21
2023-06-09 17:11:00,SystemResetWarning,0830.3,5.01,000.00,029.5,028.2,000.0,038.0,031.1,20.5,0000.0,0004.01,0010.74,0003.18
2023-06-09 17:12:00,SystemResetWarning,0830.3,4.99,000.00,029.6,027.1,000.0,037.9,031.2,22.1,0000.0,0003.97,0010.39,0003.17
2023-06-09 17:13:00,SystemResetWarning,0830.2,5.00,000.00,029.5,025.2,000.0,037.9,031.0,24.6,0000.0,0003.93,0010.33,0003.16
2023-06-09 17:14:00,SystemResetWarning,0830.2,5.02,000.00,029.5,024.9,000.0,037.9,031.0,22.9,0000.0,0003.93,0010.24,0003.17
2023-06-09 17:15:00,SystemResetWarning,0830.2,5.00,000.00,029.4,025.2,000.0,037.8,030.7,20.1,0000.0,0003.89,0010.12,0003.16
2023-06-09 17:16:00,SystemResetWarning,0830.2,4.99,000.00,029.3,025.6,000.0,037.9,030.6,20.0,0000.0,0003.87,0010.03,0003.16
2023-06-09 17:17:00,SystemResetWarning,0830.2,5.00,000.00,029.3,026.0,000.0,037.9,030.6,19.9,0000.0,0003.88,0008.63,0003.16
2023-06-09 17:18:00,SystemResetWarning,0830.2,5.01,000.00,029.3,026.4,000.0,037.8,030.6,21.5,0000.0,0003.85,0008.01,0003.16
2023-06-09 17:19:00,SystemResetWarning,0830.2,5.00,000.00,029.3,026.7,000.0,037.8,030.7,21.9,0000.0,0003.85,0008.06,0003.16
2023-06-09 17:20:00,SystemResetWarning,0830.3,4.99,000.00,029.3,027.0,000.0,037.8,030.8,20.9,0000.0,0003.86,0008.90,0003.16
2023-06-09 17:21:00,SystemResetWarning,0830.2,5.01,000.00,029.3,027.3,000.0,037.8,030.8,21.1,0000.0,0003.92,0009.09,0003.18
2023-06-09 17:22:00,SystemResetWarning,0830.2,5.00,000.00,029.3,027.5,000.0,037.9,030.9,20.8,0000.0,0003.93,0009.05,0003.19
2023-06-09 17:23:00,SystemResetWarning,0830.2,5.01,000.00,029.3,027.7,000.0,037.9,030.9,20.8,0000.0,0003.96,0008.94,0003.18
2023-06-09 17:24:00,SystemResetWarning,0830.3,5.01,000.00,029.4,027.8,000.0,037.9,031.0,21.7,0000.0,0003.96,0008.64,0003.18
2023-06-09 17:25:00,SystemResetWarning,0830.2,4.99,000.00,029.4,028.0,000.0,037.9,031.0,22.8,0000.0,0003.95,0008.62,0003.17
2023-06-09 17:26:00,SystemResetWarning,0830.2,5.00,000.00,029.5,028.1,000.0,037.9,031.1,23.4,0000.0,0003.96,0008.63,0003.17
2023-06-09 17:27:00,SystemResetWarning,0830.3,4.99,000.00,029.5,028.2,000.0,037.9,031.1,24.2,0000.0,0003.93,0008.60,0003.15
2023-06-09 17:28:00,SystemResetWarning,0830.2,5.00,000.00,029.5,027.0,000.0,037.9,031.2,23.7,0000.0,0003.90,0008.60,0003.15
2023-06-09 17:29:00,SystemResetWarning,0830.3,5.00,000.00,029.5,025.1,000.0,037.8,031.0,23.4,0000.0,0003.90,0009.37,0003.15
2023-06-09 17:30:00,SystemResetWarning,0830.2,5.00,000.00,029.5,024.8,000.0,037.8,031.0,23.8,0000.0,0003.89,0009.39,0003.16
2023-06-09 17:31:00,SystemResetWarning,0830.2,5.01,000.00,029.4,025.1,000.0,037.8,030.8,22.9,0000.0,0003.91,0008.76,0003.17
2023-06-09 17:32:00,SystemResetWarning,0830.2,5.01,000.00,029.3,025.5,000.0,037.8,030.7,22.9,0000.0,0003.89,0008.39,0003.16
2023-06-09 17:33:00,SystemResetWarning,0830.2,4.99,000.00,029.3,026.0,000.0,037.8,030.6,22.7,0000.0,0003.93,0013.35,0003.15
2023-06-09 17:34:00,SystemResetWarning,0830.2,5.00,000.00,029.3,026.4,000.0,037.8,030.6,22.7,0000.0,0003.90,0016.85,0003.15
2023-06-09 17:35:00,SystemResetWarning,0830.2,5.01,000.00,029.3,026.7,000.0,037.8,030.7,22.6,0000.0,0003.97,0017.10,0003.15
2023-06-09 17:36:00,SystemResetWarning,0830.2,5.00,000.00,029.3,027.0,000.0,037.8,030.8,23.7,0000.0,0004.00,0017.25,0003.15
2023-06-09 17:37:00,SystemResetWarning,0830.3,5.00,000.00,029.3,027.3,000.0,037.8,030.8,23.2,0000.0,0004.01,0017.29,0003.14
2023-06-09 17:38:00,SystemResetWarning,0830.2,4.99,000.00,029.3,027.5,000.0,037.8,030.9,23.0,0000.0,0004.00,0017.30,0003.13
2023-06-09 17:39:00,SystemResetWarning,0830.2,5.00,000.00,029.3,027.7,000.0,037.8,030.9,23.1,0000.0,0003.97,0017.32,0003.12
2023-06-09 17:40:00,SystemResetWarning,0830.2,5.01,000.00,029.4,027.9,000.0,037.8,031.0,21.6,0000.0,0003.97,0016.72,0003.11
2023-06-09 17:41:00,SystemResetWarning,0830.2,5.00,000.00,029.4,028.0,000.0,037.9,031.0,20.5,0000.0,0003.96,0016.46,0003.08
2023-06-09 17:42:00,SystemResetWarning,0830.3,5.00,000.00,029.4,028.1,000.0,037.9,031.1,21.0,0000.0,0003.90,0016.37,0003.04
2023-06-09 17:43:00,SystemResetWarning,0830.2,4.98,000.00,029.5,027.7,000.0,037.9,031.1,21.3,0000.0,0003.84,0016.22,0003.02
2023-06-09 17:44:00,SystemResetWarning,0830.3,4.99,000.00,029.5,025.8,000.0,037.8,031.0,23.0,0000.0,0003.80,0011.93,0003.02
2023-06-09 17:45:00,SystemResetWarning,0830.2,5.00,000.00,029.4,024.6,000.0,037.8,031.0,23.0,0000.0,0003.78,0007.66,0003.03
2023-06-09 17:46:00,SystemResetWarning,0830.2,5.01,000.00,029.4,024.9,000.0,037.8,030.9,23.6,0000.0,0003.71,0007.43,0003.05
2023-06-09 17:47:00,SystemResetWarning,0830.2,4.99,000.00,029.3,025.3,000.0,037.8,030.6,23.2,0000.0,0003.69,0007.32,0003.05
2023-06-09 17:48:00,SystemResetWarning,0830.2,4.99,000.00,029.2,025.7,000.0,037.8,030.6,24.7,0000.0,0003.70,0007.26,0003.07
2023-06-09 17:49:00,SystemResetWarning,0830.1,5.00,000.00,029.2,026.1,000.0,037.8,030.6,25.5,0000.0,0003.70,0007.54,0003.11
2023-06-09 17:50:00,SystemResetWarning,0830.2,5.01,000.00,029.2,026.5,000.0,037.8,030.6,24.2,0000.0,0003.73,0007.76,0003.11
2023-06-09 17:51:00,SystemResetWarning,0830.2,5.00,000.00,029.2,026.8,000.0,037.8,030.6,22.9,0000.0,0003.75,0008.45,0003.12
2023-06-09 17:52:00,SystemResetWarning,0830.2,5.00,000.00,029.2,027.1,000.0,037.8,030.7,23.5,0000.0,0003.77,0008.95,0003.12
2023-06-09 17:53:00,SystemResetWarning,0830.2,5.00,000.00,029.2,027.3,000.0,037.8,030.8,21.8,0000.0,0003.81,0009.11,0003.14
2023-06-09 17:54:00,SystemResetWarning,0830.1,5.00,000.00,029.3,027.6,000.0,037.8,030.8,22.5,0000.0,0003.85,0009.41,0003.15
2023-06-09 17:55:00,SystemResetWarning,0830.1,5.00,000.00,029.3,027.7,000.0,037.8,030.9,23.0,0000.0,0003.82,0009.45,0003.16
2023-06-09 17:56:00,SystemResetWarning,0830.1,5.00,000.00,029.3,027.9,000.0,037.8,030.9,23.3,0000.0,0003.81,0009.67,0003.16
2023-06-09 17:57:00,SystemResetWarning,0830.1,5.00,000.00,029.4,028.0,000.0,037.8,031.0,24.8,0000.0,0003.82,0010.00,0003.16
2023-06-09 17:58:00,SystemResetWarning,0830.1,5.00,000.00,029.4,028.1,000.0,037.8,031.0,25.3,0000.0,0003.83,0010.40,0003.17
2023-06-09 17:59:00,SystemResetWarning,0830.1,4.97,000.00,029.4,026.8,000.0,037.8,031.0,25.7,0000.0,0003.85,0011.48,0003.19
